Flag for Norway Weather past 2 weeks in Sandefjord, Norway

Now
14 °F

Passing clouds.


Feels Like: 2 °F
Forecast: 11 / 20 °F
Wind: 9 mph from North

Location: Torp

Current Time: Dec 27, 2014 at 4:12:37 PM

Latest Report: Dec 27, 2014 at 3:50 PM


Visibility: N/A

Pressure: 30.04 "Hg

Humidity: 92%

Dew point: 12 °F

Location of SandefjordLocation

Historic Weather in Sandefjord — Graph

°F

Sandefjord temperature yesterday

Maximum temperature yesterday: 25 °F (at 4:20 PM)
Minimum temperature yesterday: 7 °F (at 3:20 AM)
Average temperature yesterday: 15 °F

Past Weeks' High & Low Weather Summary

 TemperatureHumidityPressure
High45 °F (Dec 14, 3:20 PM)100% (Dec 12, 5:20 PM)30.21 "Hg (Dec 12, 5:20 PM)
Low7 °F (Dec 26, 3:20 AM)52% (Dec 21, 3:20 AM)28.97 "Hg (Dec 12, 6:50 PM)
Average31 °F83%29.46 "Hg
* Reported Dec 12 2:20 PM — Dec 27 2:50 PM, Sandefjord, Weather by CustomWeather, © 2014

Note: Actual official high and low records may vary slightly from our data, if they occured in-between our weather recording intervals... More about our weather records

Advertising

Sandefjord weather history for previous 24 hours

 ConditionsComfort  
Time TempWeatherWind HumidityBarometerVisibility
2:50 PM
Dec 27
18 °FPassing clouds.10 mph86%30.01 "HgN/A
2:20 PM18 °FPassing clouds.8 mph86%30.01 "HgN/A
1:50 PM19 °FPassing clouds.8 mph86%30.01 "HgN/A
1:20 PM19 °FPassing clouds.8 mph86%30.01 "HgN/A
12:50 PM19 °FPassing clouds.8 mph86%30.01 "HgN/A
12:20 PM18 °FPassing clouds.8 mph93%30.01 "HgN/A
11:50 AM18 °FPassing clouds.9 mph86%30.01 "HgN/A
11:20 AM18 °FPassing clouds.9 mph86%30.01 "HgN/A
10:50 AM18 °FPassing clouds.10 mph86%30.01 "HgN/A
10:20 AM16 °FPassing clouds.9 mph86%30.01 "HgN/A
9:50 AM16 °FPassing clouds.9 mph86%29.98 "HgN/A
9:20 AM14 °FPassing clouds.8 mph92%29.98 "HgN/A
8:50 AM14 °FPassing clouds.7 mph92%29.98 "HgN/A
8:20 AM14 °FClear.8 mph92%29.98 "Hg10 mi
7:50 AM14 °FClear.8 mph92%29.98 "Hg10 mi
7:20 AM14 °FClear.8 mph92%29.95 "Hg10 mi
6:50 AM14 °FClear.8 mph92%29.95 "Hg10 mi
6:20 AM14 °FClear.9 mph92%29.98 "Hg10 mi
5:50 AM14 °FClear.8 mph92%29.98 "Hg10 mi
5:20 AM14 °FCold.7 mph92%29.98 "HgN/A
4:20 AM14 °FCold.9 mph92%29.98 "HgN/A
3:50 AM16 °FCold.8 mph86%29.98 "HgN/A
3:20 AM16 °FPassing clouds.8 mph93%29.98 "HgN/A
2:50 AM19 °FLow clouds.10 mph93%29.98 "HgN/A
2:20 AM21 °FLow clouds.10 mph93%29.98 "Hg5 mi
1:50 AM19 °FLow clouds.9 mph93%29.98 "HgN/A
1:20 AM18 °FLow clouds.7 mph93%29.98 "HgN/A
12:50 AM18 °FPassing clouds.10 mph93%29.98 "HgN/A
12:20 AM18 °FCold.10 mph86%29.98 "HgN/A
11:50 PM
Dec 26
18 °FCold.8 mph93%29.98 "HgN/A
11:20 PM16 °FCold.8 mph93%29.98 "HgN/A
10:50 PM16 °FClear.8 mph93%29.98 "Hg10 mi
10:20 PM18 °FClear.10 mph93%29.95 "Hg10 mi
9:50 PM18 °FClear.8 mph93%29.95 "Hg10 mi
9:20 PM18 °FClear.8 mph93%29.95 "Hg10 mi
8:50 PM18 °FClear.9 mph86%29.95 "Hg10 mi
8:20 PM19 °FClear.7 mph86%29.95 "Hg10 mi
7:50 PM19 °FClear.6 mph86%29.95 "Hg10 mi
7:20 PM23 °FClear.2 mph86%29.95 "Hg10 mi
6:50 PM25 °FClear.1 mph80%29.98 "Hg10 mi
6:20 PM25 °FPassing clouds.2 mph80%29.98 "HgN/A
5:50 PM25 °FPassing clouds.3 mph80%29.98 "HgN/A
5:20 PM25 °FMostly cloudy.6 mph74%30.01 "HgN/A
4:50 PM25 °FOvercast.6 mph74%30.01 "HgN/A
4:20 PM25 °FClear.6 mph74%30.04 "Hg10 mi
Weather by CustomWeather, © 2014

See weather overviewHow to use our weather pages